Messwerte Taos

Temperatur

Temperatur
°C
1614481200 20.00 20.00 -1
1614484800 21.00 21.00 -3
1614488400 22.00 22.00 -4
1614492000 23.00 23.00 -5
1614495600 0.00 0.00 -5
1614499200 1.00 1.00 -6
1614502800 2.00 2.00 -6
1614506400 3.00 3.00 -7
1614510000 4.00 4.00 -8
1614513600 5.00 5.00 -7
1614517200 6.00 6.00 -9
1614520800 7.00 7.00 -8
1614524400 8.00 8.00 -6
1614528000 9.00 9.00 -4
1614531600 10.00 10.00 -1
1614535200 11.00 11.00 0
1614538800 12.00 12.00 0
1614542400 13.00 13.00 0
1614546000 14.00 14.00 0
1614549600 15.00 15.00 0
1614553200 16.00 16.00 1
1614556800 17.00 17.00 1
1614560400 18.00 18.00 -1
1614564000 19.00 19.00 -2

Aktuellste Messwerte

Wettercharakter
Wetter: meist klar
Temperatur
-2 °C
Feuchtigkeit
60 %
Luftdruck
1021 hPa
Messzeit: 28. Februar 2021, 20.00Datenquelle: METAR

Weitere Messstationen in der Nähe

Messstation Temperatur Entfernung
Los Alamos -1 °C 83 km
Las Vegas -1 °C 101 km
Raton -4 °C 109 km
Alamosa -8 °C 110 km
La Veta Mountain -12 °C 125 km
Santa Fe NM 1 °C 138 km
Trinidad -3 °C 149 km

Wind

Windrichtung Böen Mittelwind
° km/h km/h
1614481200 20.00 19.00 - 20.00 70° 10
1614484800 21.00 20.00 - 21.00 330° 5
1614488400 22.00 21.00 - 22.00 330° 10
1614492000 23.00 22.00 - 23.00 10° 10
1614495600 0.00 23.00 - 0.00
1614499200 1.00 0.00 - 1.00
1614502800 2.00 1.00 - 2.00 310° 20
1614506400 3.00 2.00 - 3.00
1614510000 4.00 3.00 - 4.00 20° 35 15
1614513600 5.00 4.00 - 5.00 0
1614517200 6.00 5.00 - 6.00 60° 15
1614520800 7.00 6.00 - 7.00 110° 5
1614524400 8.00 7.00 - 8.00 30° 15
1614528000 9.00 8.00 - 9.00 160° 5
1614531600 10.00 9.00 - 10.00 220° 5
1614535200 11.00 10.00 - 11.00
1614538800 12.00 11.00 - 12.00 130° 10
1614542400 13.00 12.00 - 13.00 70° 20
1614546000 14.00 13.00 - 14.00 50° 15
1614549600 15.00 14.00 - 15.00 360° 20
1614553200 16.00 15.00 - 16.00 30° 20
1614556800 17.00 16.00 - 17.00 360° 10
1614560400 18.00 17.00 - 18.00 0
1614564000 19.00 18.00 - 19.00 80° 10

Ihre Wetterstation

Fehlt Ihre Wetterstation auf unserem Portal?

Schreiben Sie an network@meteonews.ch

Klima

Wann ist es am wärmsten? Wann regnet es am wenigsten? Unsere Klimadaten geben Auskunft.